Weather History for Campo, CA

Change the Weather History Date:

Thursday, March 21, 2013

  Actual Average Record
Temperature  
Mean Temperature 52 °F 52 °F  
Max Temperature 65 °F 68 °F 87 °F (2004)
Min Temperature 38 °F 36 °F 20 °F (1955)
Degree Days  
Heating Degree Days 13 13  
Month to date heating degree days 268 289  
Since 1 July heating degree days 2412 2340  
Cooling Degree Days 0 0  
Month to date cooling degree days 0 0  
Year to date cooling degree days 0 0  
Growing Degree Days 2 (Base 50)    
Moisture  
Dew Point 40 °F    
Average Humidity 70    
Maximum Humidity 96    
Minimum Humidity 43    
Precipitation  
Precipitation 0.00 in 0.07 in 1.25 in (1991)
Month to date precipitation 1.43 2.04  
Year to date precipitation 4.44 8.25  
Since 1 July precipitation 8.91 13.83  
Snow  
Snow 0.00 in - - ()
Month to date snowfall 0.0  
Year to date snowfall 0.0  
Since 1 July snowfall 0.0  
Snow Depth 0.00 in    
Sea Level Pressure  
Sea Level Pressure 29.82 in    
Wind  
Wind Speed 6 mph (WSW)    
Max Wind Speed 17 mph    
Max Gust Speed 22 mph    
T = Trace of Precipitation, MM = Missing Value Source: NWS Daily Summary

Daily Weather History Graph

Daily Weather History Graph

Search for Another Location

Airport:

Trip Planner

Search our weather history database for the weather conditions in past years. The results will help you decide how hot, cold, wet, or windy it might be!

Date:

Astronomy

Mar. 21, 2013 Rise Set
Actual Time 6:47 AM PDT 6:58 PM PDT
Civil Twilight 6:23 AM PDT 7:22 PM PDT
Nautical Twilight 5:54 AM PDT 7:51 PM PDT
Astronomical Twilight 5:25 AM PDT 8:20 PM PDT
Moon 1:47 PM PDT (3/21) 2:56 AM PDT (3/21)
Length of Visible Light 12h 59m
Length of Day
12h 10m
Waxing Gibbous, 69% of the Moon is Illuminated
Mar 21
Waxing Gibbous
Mar 27
Full
Apr 2
Last Quarter
Apr 10
New
Apr 18
First Quarter

Hourly Weather History & Observations

Time (PDT) Temp. Windchill Dew Point Humidity Pressure Visibility Wind Dir Wind Speed Gust Speed Precip Events Conditions
12:52 AM 41.0 °F - 37.0 °F 86% 29.91 in - Calm Calm - N/A   Unknown
1:52 AM 39.9 °F 36.7 °F 36.0 °F 86% 29.88 in - North 4.6 mph - N/A   Unknown
2:52 AM 41.0 °F 39.0 °F 37.0 °F 86% 29.87 in - NE 3.5 mph - N/A   Unknown
3:52 AM 43.0 °F 41.3 °F 37.9 °F 82% 29.84 in - NNE 3.5 mph - N/A   Unknown
4:52 AM 41.0 °F 38.0 °F 37.0 °F 86% 29.85 in - North 4.6 mph - N/A   Unknown
5:52 AM 41.0 °F 39.0 °F 37.0 °F 86% 29.86 in - North 3.5 mph - N/A   Unknown
6:52 AM 39.0 °F - 35.1 °F 86% 29.84 in - Calm Calm - N/A   Unknown
7:52 AM 45.0 °F 43.5 °F 37.0 °F 74% 29.85 in - NNE 3.5 mph - N/A   Unknown
8:52 AM 48.9 °F - 39.9 °F 71% 29.85 in - Calm Calm - N/A   Unknown
9:52 AM 55.0 °F - 37.9 °F 53% 29.84 in - Calm Calm - N/A   Unknown
10:52 AM 59.0 °F - 39.0 °F 48% 29.85 in - SW 8.1 mph - N/A   Unknown
11:52 AM 62.1 °F - 39.0 °F 43% 29.84 in - SSW 13.8 mph - N/A   Unknown
12:52 PM 63.0 °F - 39.9 °F 43% 29.82 in - SW 11.5 mph - N/A   Unknown
1:52 PM 64.0 °F - 43.0 °F 46% 29.81 in - SSW 17.3 mph - N/A   Unknown
2:52 PM 64.0 °F - 46.9 °F 54% 29.79 in - SW 16.1 mph 21.9 mph N/A   Unknown
3:52 PM 61.0 °F - 46.9 °F 60% 29.77 in - SW 16.1 mph - N/A   Unknown
4:52 PM 64.0 °F - 46.9 °F 54% 29.76 in - SSW 9.2 mph - N/A   Unknown
5:52 PM 62.1 °F - 45.0 °F 53% 29.76 in - WSW 10.4 mph - N/A   Unknown
6:52 PM 57.0 °F - 44.1 °F 62% 29.78 in - SW 9.2 mph - N/A   Unknown
7:52 PM 52.0 °F - 44.1 °F 74% 29.78 in - Calm Calm - N/A   Unknown
8:52 PM 46.9 °F - 41.0 °F 80% 29.80 in - Calm Calm - N/A   Unknown
9:52 PM 42.1 °F 40.2 °F 37.9 °F 85% 29.79 in - ENE 3.5 mph - N/A   Unknown
10:52 PM 39.9 °F - 37.9 °F 93% 29.80 in - Calm Calm - N/A   Unknown
11:52 PM 43.0 °F 41.3 °F 41.0 °F 93% 29.78 in - NE 3.5 mph - N/A   Unknown